Keene, NH

1:15 PM EDT on April 28, 2017 (GMT -0400)
Dillant-Hopkins

Weather History for KEEN - November, 2011

Change the Weather History Date:

Monday, November 21, 2011

  Actual Average Record
Temperature  
Mean Temperature 38 °F -  
Max Temperature 51 °F 43 °F 71 °F (1991)
Min Temperature 24 °F 26 °F 4 °F (1933)
Degree Days  
Heating Degree Days 28    
Moisture  
Dew Point 26 °F    
Average Humidity 62    
Maximum Humidity 86    
Minimum Humidity 36    
Precipitation  
Precipitation 0.00 in - - ()
Sea Level Pressure  
Sea Level Pressure 30.27 in    
Wind  
Wind Speed 8 mph (NNW)    
Max Wind Speed 15 mph    
Max Gust Speed 22 mph    
Visibility 10 miles    
Events      
Averages and records for this station are not official NWS values.
T = Trace of Precipitation, MM = Missing Value Source: NWS Daily Summary

Daily Weather History Graph

Daily Weather History Graph

Search for Another Location

Airport or City:

Trip Planner

Search our weather history database for the weather conditions in past years. The results will help you decide how hot, cold, wet, or windy it might be!

Date:

Astronomy

Nov. 21, 2011 Rise Set
Actual Time 6:48 AM EST 4:21 PM EST
Civil Twilight 6:17 AM EST 4:52 PM EST
Nautical Twilight 5:42 AM EST 5:26 PM EST
Astronomical Twilight 5:08 AM EST 6:00 PM EST
Moon 2:18 AM EST (11/21) 1:46 PM EST (11/21)
Length of Visible Light 10h 34m
Length of Day
9h 32m
Waning Crescent, 18% of the Moon is Illuminated
Nov 21
Waning Crescent
Nov 25
New
Dec 2
First Quarter
Dec 10
Full
Dec 17
Last Quarter

Hourly Weather History & Observations

Time (EST) Temp. Windchill Dew Point Humidity Pressure Visibility Wind Dir Wind Speed Gust Speed Precip Events Conditions
12:15 AM 51.8 °F - 37.4 °F 58% 30.10 in 10.0 mi North 10.4 mph - N/A   Clear
12:35 AM 50.0 °F - 35.6 °F 58% 30.10 in 10.0 mi North 6.9 mph - N/A   Clear
12:55 AM 50.0 °F - 35.6 °F 58% 30.11 in 10.0 mi North 6.9 mph - N/A   Clear
1:35 AM 48.2 °F - 35.6 °F 62% 30.13 in 10.0 mi North 6.9 mph - N/A   Scattered Clouds
1:55 AM 48.2 °F - 35.6 °F 62% 30.13 in 10.0 mi North 10.4 mph - N/A   Partly Cloudy
2:15 AM 48.2 °F - 33.8 °F 58% 30.14 in 10.0 mi North 13.8 mph 19.6 mph N/A   Scattered Clouds
2:35 AM 46.4 °F 40.4 °F 35.6 °F 66% 30.15 in 10.0 mi North 13.8 mph - N/A   Mostly Cloudy
2:55 AM 46.4 °F 41.5 °F 35.6 °F 66% 30.16 in 10.0 mi North 10.4 mph - N/A   Overcast
3:55 AM 44.6 °F 38.1 °F 33.8 °F 66% 30.19 in 10.0 mi North 13.8 mph 19.6 mph N/A   Clear
4:15 AM 44.6 °F 37.8 °F 33.8 °F 66% 30.19 in 10.0 mi North 15.0 mph 21.9 mph N/A   Scattered Clouds
4:35 AM 44.6 °F 38.4 °F 33.8 °F 66% 30.21 in 10.0 mi North 12.7 mph - N/A   Overcast
4:55 AM 42.8 °F 36.6 °F 32.0 °F 66% 30.20 in 10.0 mi North 11.5 mph - N/A   Mostly Cloudy
5:15 AM 42.8 °F 36.2 °F 33.8 °F 70% 30.21 in 10.0 mi NNW 12.7 mph - N/A   Mostly Cloudy
5:35 AM 42.8 °F 38.0 °F 32.0 °F 66% 30.22 in 10.0 mi North 8.1 mph - N/A   Overcast
5:55 AM 42.8 °F 37.5 °F 30.2 °F 61% 30.23 in 10.0 mi NNW 9.2 mph - N/A   Mostly Cloudy
6:35 AM 39.2 °F 32.5 °F 30.2 °F 70% 30.25 in 10.0 mi North 10.4 mph - N/A   Clear
6:55 AM 39.2 °F 33.6 °F 30.2 °F 70% 30.26 in 10.0 mi North 8.1 mph - N/A   Partly Cloudy
7:15 AM 39.2 °F 33.6 °F 30.2 °F 70% 30.28 in 10.0 mi North 8.1 mph - N/A   Mostly Cloudy
7:35 AM 39.2 °F 33.0 °F 28.4 °F 65% 30.29 in 10.0 mi North 9.2 mph - N/A   Overcast
7:55 AM 39.2 °F 32.5 °F 28.4 °F 65% 30.30 in 10.0 mi North 10.4 mph - N/A   Mostly Cloudy
9:35 AM 39.2 °F 31.6 °F 24.8 °F 56% 30.33 in 10.0 mi North 12.7 mph - N/A   Clear
9:55 AM 39.2 °F 31.2 °F 24.8 °F 56% 30.34 in 10.0 mi North 13.8 mph - N/A   Clear
10:35 AM 39.2 °F 31.6 °F 23.0 °F 52% 30.33 in 10.0 mi North 12.7 mph - N/A   Clear
11:15 AM 41.0 °F 34.3 °F 21.2 °F 45% 30.32 in 10.0 mi North 11.5 mph - N/A   Clear
11:35 AM 41.0 °F 33.9 °F 23.0 °F 49% 30.31 in 10.0 mi NNW 12.7 mph - N/A   Clear
11:55 AM 41.0 °F 35.8 °F 21.2 °F 45% 30.30 in 10.0 mi NNW 8.1 mph - N/A   Clear
12:15 PM 41.0 °F 39.0 °F 19.4 °F 42% 30.30 in 10.0 mi NNW 3.5 mph - N/A   Clear
12:35 PM 42.8 °F - 19.4 °F 39% 30.30 in 10.0 mi Calm Calm - N/A   Clear
1:55 PM 42.8 °F 38.6 °F 19.4 °F 39% 30.28 in 10.0 mi NNW 6.9 mph - N/A   Clear
2:15 PM 42.8 °F 40.1 °F 19.4 °F 39% 30.28 in 10.0 mi NW 4.6 mph - N/A   Clear
2:35 PM 42.8 °F 39.3 °F 17.6 °F 36% 30.27 in 10.0 mi North 5.8 mph - N/A   Clear
2:55 PM 42.8 °F 41.1 °F 17.6 °F 36% 30.27 in 10.0 mi NW 3.5 mph - N/A   Clear
3:15 PM 42.8 °F 41.1 °F 17.6 °F 36% 30.27 in 10.0 mi WNW 3.5 mph - N/A   Clear
3:35 PM 42.8 °F 41.1 °F 17.6 °F 36% 30.28 in 10.0 mi WNW 3.5 mph - N/A   Clear
4:35 PM 37.4 °F - 21.2 °F 52% 30.29 in 10.0 mi Calm Calm - N/A   Clear
4:55 PM 35.6 °F - 21.2 °F 56% 30.31 in 10.0 mi Calm Calm - N/A   Clear
5:15 PM 33.8 °F - 21.2 °F 60% 30.32 in 10.0 mi Calm Calm - N/A   Clear
5:35 PM 33.8 °F - 21.2 °F 60% 30.32 in 10.0 mi Calm Calm - N/A   Clear
6:15 PM 30.2 °F - 21.2 °F 69% 30.33 in 10.0 mi Calm Calm - N/A   Clear
6:35 PM 30.2 °F - 23.0 °F 75% 30.34 in 10.0 mi Calm Calm - N/A   Clear
6:55 PM 30.2 °F - 21.2 °F 69% 30.34 in 10.0 mi Calm Calm - N/A   Clear
7:15 PM 28.4 °F - 21.2 °F 74% 30.34 in 10.0 mi Calm Calm - N/A   Clear
7:35 PM 28.4 °F - 23.0 °F 80% 30.35 in 10.0 mi Calm Calm - N/A   Clear
7:55 PM 28.4 °F - 21.2 °F 74% 30.34 in 10.0 mi Calm Calm - N/A   Clear
8:15 PM 26.6 °F - 21.2 °F 80% 30.34 in 10.0 mi Calm Calm - N/A   Clear
8:35 PM 26.6 °F 22.6 °F 21.2 °F 80% 30.34 in 10.0 mi South 3.5 mph - N/A   Clear
9:15 PM 26.6 °F - 19.4 °F 74% 30.35 in 10.0 mi Calm Calm - N/A   Clear
9:35 PM 26.6 °F - 21.2 °F 80% 30.35 in 10.0 mi Calm Calm - N/A   Clear
10:35 PM 24.8 °F - 21.2 °F 86% 30.35 in 10.0 mi Calm Calm - N/A   Clear
10:55 PM 24.8 °F - 21.2 °F 86% 30.35 in 10.0 mi Calm Calm - N/A   Clear
11:35 PM 24.8 °F - 21.2 °F 86% 30.35 in 10.0 mi Calm Calm - N/A   Clear
11:55 PM 24.8 °F - 21.2 °F 86% 30.35 in 10.0 mi Calm Calm - N/A   Clear